Time,TemperatureF,DewpointF,PressureIn,WindDirection,WindDirectionDegrees,WindSpeedMPH,WindSpeedGustMPH,Humidity,HourlyPrecipIn,Conditions,Clouds,dailyrainin,SoftwareType,DateUTC
2013-12-21 00:07:00,23.8,22.0,31.76,SSE,148,0.0,8.0,91,0.00,,,0.00,weatherlink.com 1.10,2013-12-21 07:07:00,
2013-12-21 00:22:00,24.0,22.0,31.77,SW,223,0.0,0.0,91,0.00,,,0.00,weatherlink.com 1.10,2013-12-21 07:22:00,
2013-12-21 00:37:00,23.8,22.0,31.77,WNW,282,0.0,3.0,91,0.00,,,0.00,weatherlink.com 1.10,2013-12-21 07:37:00,
2013-12-21 00:52:00,23.9,22.0,31.77,WNW,299,0.0,3.0,92,0.00,,,0.00,weatherlink.com 1.10,2013-12-21 07:52:00,
2013-12-21 01:07:00,24.1,22.0,31.77,WNW,299,0.0,0.0,92,0.00,,,0.00,weatherlink.com 1.10,2013-12-21 08:07:00,
2013-12-21 01:22:00,24.1,22.0,31.78,NW,326,5.0,5.0,91,0.00,,,0.00,weatherlink.com 1.10,2013-12-21 08:22:00,
2013-12-21 01:37:00,24.3,22.0,31.79,NW,304,3.0,10.0,89,0.00,,,0.00,weatherlink.com 1.10,2013-12-21 08:37:00,
2013-12-21 01:52:00,24.0,21.0,31.78,NW,311,9.0,11.0,89,0.00,,,0.00,weatherlink.com 1.10,2013-12-21 08:52:00,
2013-12-21 02:07:00,24.3,21.0,31.79,WNW,303,7.0,13.0,88,0.00,,,0.00,weatherlink.com 1.10,2013-12-21 09:07:00,
2013-12-21 02:22:00,24.1,21.0,31.80,NNW,328,8.0,13.0,88,0.00,,,0.00,weatherlink.com 1.10,2013-12-21 09:22:00,
2013-12-21 02:37:00,24.5,21.0,31.80,NNW,327,9.0,16.0,87,0.00,,,0.00,weatherlink.com 1.10,2013-12-21 09:37:00,
2013-12-21 02:52:00,24.7,21.0,31.81,NW,320,11.0,16.0,86,0.00,,,0.00,weatherlink.com 1.10,2013-12-21 09:52:00,
2013-12-21 03:07:00,25.1,21.0,31.82,NW,325,7.0,19.0,85,0.00,,,0.00,weatherlink.com 1.10,2013-12-21 10:07:00,
2013-12-21 03:22:00,25.1,21.0,31.83,NW,306,20.0,28.0,84,0.00,,,0.00,weatherlink.com 1.10,2013-12-21 10:22:00,
2013-12-21 03:37:00,25.0,21.0,31.83,NW,319,22.0,24.0,84,0.00,,,0.00,weatherlink.com 1.10,2013-12-21 10:37:00,
2013-12-21 03:52:00,24.9,21.0,31.83,WNW,295,16.0,31.0,84,0.00,,,0.00,weatherlink.com 1.10,2013-12-21 10:52:00,
2013-12-21 04:07:00,24.9,21.0,31.84,NW,312,14.0,28.0,84,0.00,,,0.00,weatherlink.com 1.10,2013-12-21 11:07:00,
2013-12-21 04:22:00,24.8,21.0,31.84,NW,310,21.0,28.0,84,0.00,,,0.00,weatherlink.com 1.10,2013-12-21 11:22:00,
2013-12-21 04:37:00,24.9,21.0,31.84,North,355,17.0,24.0,84,0.00,,,0.00,weatherlink.com 1.10,2013-12-21 11:37:00,
2013-12-21 04:52:00,24.8,21.0,31.85,WNW,294,10.0,24.0,84,0.00,,,0.00,weatherlink.com 1.10,2013-12-21 11:52:00,
2013-12-21 05:07:00,24.5,20.0,31.86,NW,318,13.0,26.0,84,0.00,,,0.00,weatherlink.com 1.10,2013-12-21 12:07:00,
2013-12-21 05:22:00,24.4,20.0,31.87,NNW,329,11.0,24.0,84,0.00,,,0.00,weatherlink.com 1.10,2013-12-21 12:22:00,
2013-12-21 05:37:00,24.2,20.0,31.88,NNW,336,13.0,22.0,85,0.00,,,0.00,weatherlink.com 1.10,2013-12-21 12:37:00,
2013-12-21 05:52:00,24.1,20.0,31.90,NW,311,15.0,24.0,85,0.00,,,0.00,weatherlink.com 1.10,2013-12-21 12:52:00,
2013-12-21 06:07:00,24.2,20.0,31.90,North,349,10.0,25.0,85,0.00,,,0.00,weatherlink.com 1.10,2013-12-21 13:07:00,
2013-12-21 06:22:00,24.0,20.0,31.91,WNW,301,9.0,26.0,85,0.00,,,0.00,weatherlink.com 1.10,2013-12-21 13:22:00,
2013-12-21 06:37:00,24.0,20.0,31.92,NNW,338,15.0,21.0,85,0.00,,,0.00,weatherlink.com 1.10,2013-12-21 13:37:00,
2013-12-21 06:52:00,24.0,20.0,31.94,WNW,291,14.0,26.0,85,0.00,,,0.00,weatherlink.com 1.10,2013-12-21 13:52:00,
2013-12-21 07:07:00,24.3,20.0,31.95,WNW,288,18.0,25.0,84,0.00,,,0.00,weatherlink.com 1.10,2013-12-21 14:07:00,
2013-12-21 07:22:00,24.1,20.0,31.95,NW,315,12.0,20.0,84,0.00,,,0.00,weatherlink.com 1.10,2013-12-21 14:22:00,
2013-12-21 07:38:00,24.2,20.0,31.96,NW,305,16.0,23.0,83,0.00,,,0.00,weatherlink.com 1.10,2013-12-21 14:38:00,
2013-12-21 07:53:00,23.9,20.0,31.97,NNW,342,15.0,20.0,84,0.00,,,0.00,weatherlink.com 1.10,2013-12-21 14:53:00,
2013-12-21 08:08:00,24.1,20.0,31.98,NW,306,16.0,21.0,83,0.00,,,0.00,weatherlink.com 1.10,2013-12-21 15:08:00,
2013-12-21 08:23:00,24.2,20.0,31.99,North,355,15.0,19.0,83,0.00,,,0.00,weatherlink.com 1.10,2013-12-21 15:23:00,
2013-12-21 08:38:00,24.2,20.0,32.00,NNW,329,16.0,21.0,83,0.00,,,0.00,weatherlink.com 1.10,2013-12-21 15:38:00,
2013-12-21 08:53:00,23.8,19.0,32.01,NNW,338,6.0,19.0,83,0.00,,,0.00,weatherlink.com 1.10,2013-12-21 15:53:00,
2013-12-21 09:08:00,24.1,20.0,32.02,NW,312,5.0,19.0,83,0.00,,,0.00,weatherlink.com 1.10,2013-12-21 16:08:00,
2013-12-21 09:23:00,23.6,20.0,32.03,NW,307,6.0,20.0,84,0.00,,,0.00,weatherlink.com 1.10,2013-12-21 16:23:00,
2013-12-21 09:38:00,24.0,20.0,32.04,WNW,293,12.0,14.0,83,0.00,,,0.00,weatherlink.com 1.10,2013-12-21 16:38:00,
2013-12-21 09:53:00,24.3,20.0,32.04,WNW,303,6.0,15.0,83,0.00,,,0.00,weatherlink.com 1.10,2013-12-21 16:53:00,
2013-12-21 10:08:00,24.3,20.0,32.05,West,275,5.0,10.0,83,0.00,,,0.00,weatherlink.com 1.10,2013-12-21 17:08:00,
2013-12-21 10:23:00,23.0,19.0,32.06,SSE,156,2.0,4.0,86,0.00,,,0.00,weatherlink.com 1.10,2013-12-21 17:23:00,
2013-12-21 10:38:00,21.6,19.0,32.07,SE,130,0.0,2.0,90,0.00,,,0.00,weatherlink.com 1.10,2013-12-21 17:38:00,
2013-12-21 10:53:00,21.8,20.0,32.08,SE,129,0.0,4.0,91,0.00,,,0.00,weatherlink.com 1.10,2013-12-21 17:53:00,
2013-12-21 11:08:00,21.9,20.0,32.08,SE,126,1.0,6.0,92,0.00,,,0.00,weatherlink.com 1.10,2013-12-21 18:08:00,
2013-12-21 11:23:00,22.2,20.0,32.08,ESE,123,0.0,8.0,92,0.00,,,0.00,weatherlink.com 1.10,2013-12-21 18:23:00,
2013-12-21 11:38:00,22.9,21.0,32.07,SE,126,4.0,5.0,92,0.00,,,0.00,weatherlink.com 1.10,2013-12-21 18:38:00,
2013-12-21 11:53:00,23.6,21.0,32.06,ESE,107,2.0,5.0,91,0.00,,,0.00,weatherlink.com 1.10,2013-12-21 18:53:00,
2013-12-21 12:08:00,24.2,21.0,32.07,ESE,121,0.0,4.0,87,0.00,,,0.00,weatherlink.com 1.10,2013-12-21 19:08:00,
2013-12-21 12:23:00,24.4,21.0,32.07,ESE,107,0.0,4.0,88,0.00,,,0.00,weatherlink.com 1.10,2013-12-21 19:23:00,
2013-12-21 12:38:00,25.6,21.0,32.06,South,172,0.0,4.0,84,0.00,,,0.00,weatherlink.com 1.10,2013-12-21 19:38:00,
2013-12-21 12:53:00,25.6,22.0,32.07,SSE,153,6.0,8.0,86,0.00,,,0.00,weatherlink.com 1.10,2013-12-21 19:53:00,
2013-12-21 13:08:00,25.6,21.0,32.07,NW,307,0.0,9.0,84,0.00,,,0.00,weatherlink.com 1.10,2013-12-21 20:08:00,
2013-12-21 13:23:00,27.0,23.0,32.07,SE,128,4.0,6.0,83,0.00,,,0.00,weatherlink.com 1.10,2013-12-21 20:23:00,
2013-12-21 13:38:00,28.2,21.0,32.07,NNW,335,5.0,6.0,75,0.00,,,0.00,weatherlink.com 1.10,2013-12-21 20:38:00,
2013-12-21 13:53:00,27.6,21.0,32.07,WNW,300,10.0,11.0,75,0.00,,,0.00,weatherlink.com 1.10,2013-12-21 20:53:00,
2013-12-21 14:08:00,28.0,22.0,32.07,SSE,153,6.0,7.0,79,0.01,,,0.01,weatherlink.com 1.10,2013-12-21 21:08:00,
2013-12-21 14:23:00,28.8,24.0,32.07,SSE,153,7.0,9.0,81,0.01,,,0.01,weatherlink.com 1.10,2013-12-21 21:23:00,
2013-12-21 14:38:00,28.8,23.0,32.08,SSE,165,0.0,8.0,78,0.02,,,0.02,weatherlink.com 1.10,2013-12-21 21:38:00,
2013-12-21 14:54:00,28.7,21.0,32.09,WSW,248,3.0,9.0,73,0.02,,,0.02,weatherlink.com 1.10,2013-12-21 21:54:00,
2013-12-21 15:09:00,28.4,20.0,32.09,WNW,298,6.0,13.0,72,0.02,,,0.03,weatherlink.com 1.10,2013-12-21 22:09:00,
2013-12-21 15:24:00,28.5,21.0,32.09,WNW,293,11.0,20.0,73,0.03,,,0.04,weatherlink.com 1.10,2013-12-21 22:24:00,
2013-12-21 15:39:00,27.7,21.0,32.09,NW,322,8.0,18.0,75,0.02,,,0.04,weatherlink.com 1.10,2013-12-21 22:39:00,
2013-12-21 15:54:00,27.6,20.0,32.09,West,264,11.0,17.0,73,0.01,,,0.04,weatherlink.com 1.10,2013-12-21 22:54:00,
2013-12-21 16:09:00,27.8,20.0,32.09,WNW,282,15.0,22.0,73,0.01,,,0.04,weatherlink.com 1.10,2013-12-21 23:09:00,
2013-12-21 16:24:00,27.7,20.0,32.09,WNW,298,7.0,14.0,73,0.00,,,0.04,weatherlink.com 1.10,2013-12-21 23:24:00,
2013-12-21 16:39:00,28.3,20.0,32.10,NW,307,7.0,16.0,71,0.00,,,0.04,weatherlink.com 1.10,2013-12-21 23:39:00,
2013-12-21 16:54:00,28.2,20.0,32.10,West,271,15.0,18.0,72,0.00,,,0.04,weatherlink.com 1.10,2013-12-21 23:54:00,
2013-12-21 17:09:00,28.4,20.0,32.11,WNW,282,13.0,17.0,72,0.00,,,0.04,weatherlink.com 1.10,2013-12-22 00:09:00,
2013-12-21 17:24:00,28.4,21.0,32.11,West,277,13.0,26.0,73,0.00,,,0.04,weatherlink.com 1.10,2013-12-22 00:24:00,
2013-12-21 17:39:00,28.5,21.0,32.11,NW,310,16.0,26.0,73,0.00,,,0.04,weatherlink.com 1.10,2013-12-22 00:39:00,
2013-12-21 17:54:00,28.3,21.0,32.11,WNW,302,16.0,22.0,74,0.00,,,0.04,weatherlink.com 1.10,2013-12-22 00:54:00,
2013-12-21 18:09:00,28.5,21.0,32.12,WNW,302,13.0,24.0,74,0.00,,,0.04,weatherlink.com 1.10,2013-12-22 01:09:00,
2013-12-21 18:24:00,28.2,21.0,32.12,West,269,13.0,21.0,75,0.00,,,0.04,weatherlink.com 1.10,2013-12-22 01:24:00,
2013-12-21 18:39:00,28.2,22.0,32.12,NW,308,9.0,16.0,76,0.00,,,0.04,weatherlink.com 1.10,2013-12-22 01:39:00,
2013-12-21 18:54:00,27.8,22.0,32.11,NW,311,11.0,17.0,79,0.00,,,0.04,weatherlink.com 1.10,2013-12-22 01:54:00,
2013-12-21 19:09:00,27.5,22.0,32.12,NW,320,11.0,13.0,81,0.00,,,0.04,weatherlink.com 1.10,2013-12-22 02:09:00,
2013-12-21 19:24:00,27.4,22.0,32.12,West,267,0.0,8.0,81,0.00,,,0.04,weatherlink.com 1.10,2013-12-22 02:24:00,
2013-12-21 19:39:00,27.1,23.0,32.12,NNE,20,0.0,5.0,83,0.00,,,0.04,weatherlink.com 1.10,2013-12-22 02:39:00,
2013-12-21 19:54:00,27.0,23.0,32.12,ESE,105,0.0,0.0,83,0.00,,,0.04,weatherlink.com 1.10,2013-12-22 02:54:00,
2013-12-21 20:09:00,27.2,22.0,32.12,NNE,14,3.0,9.0,82,0.00,,,0.04,weatherlink.com 1.10,2013-12-22 03:09:00,
2013-12-21 20:24:00,27.6,22.0,32.12,ESE,110,0.0,5.0,80,0.00,,,0.04,weatherlink.com 1.10,2013-12-22 03:24:00,
2013-12-21 20:39:00,27.5,22.0,32.12,East,97,0.0,2.0,80,0.00,,,0.04,weatherlink.com 1.10,2013-12-22 03:39:00,
2013-12-21 20:54:00,27.5,22.0,32.12,ENE,68,0.0,3.0,81,0.00,,,0.04,weatherlink.com 1.10,2013-12-22 03:54:00,
2013-12-21 21:09:00,27.5,22.0,32.12,East,93,5.0,7.0,80,0.00,,,0.04,weatherlink.com 1.10,2013-12-22 04:09:00,
2013-12-21 21:24:00,27.5,22.0,32.12,ESE,112,5.0,11.0,81,0.00,,,0.04,weatherlink.com 1.10,2013-12-22 04:24:00,
2013-12-21 21:39:00,27.1,22.0,32.12,SE,124,7.0,10.0,81,0.00,,,0.04,weatherlink.com 1.10,2013-12-22 04:39:00,
2013-12-21 21:54:00,26.9,22.0,32.12,ESE,105,5.0,10.0,83,0.00,,,0.04,weatherlink.com 1.10,2013-12-22 04:54:00,
2013-12-21 22:09:00,27.1,23.0,32.12,East,94,0.0,7.0,83,0.00,,,0.04,weatherlink.com 1.10,2013-12-22 05:09:00,
2013-12-21 22:24:00,26.8,23.0,32.12,ESE,103,3.0,4.0,85,0.00,,,0.04,weatherlink.com 1.10,2013-12-22 05:24:00,
2013-12-21 22:39:00,26.5,23.0,32.12,ESE,102,9.0,10.0,87,0.00,,,0.04,weatherlink.com 1.10,2013-12-22 05:39:00,
2013-12-21 22:54:00,26.4,23.0,32.11,WNW,300,1.0,8.0,88,0.00,,,0.04,weatherlink.com 1.10,2013-12-22 05:54:00,
2013-12-21 23:09:00,26.5,23.0,32.12,ENE,68,3.0,9.0,88,0.00,,,0.04,weatherlink.com 1.10,2013-12-22 06:09:00,
2013-12-21 23:24:00,26.4,24.0,32.12,SSE,158,7.0,9.0,89,0.00,,,0.04,weatherlink.com 1.10,2013-12-22 06:24:00,
2013-12-21 23:39:00,26.5,24.0,32.11,ESE,105,4.0,14.0,89,0.00,,,0.04,weatherlink.com 1.10,2013-12-22 06:39:00,
2013-12-21 23:54:00,26.5,24.0,32.11,ENE,66,5.0,9.0,89,0.00,,,0.04,weatherlink.com 1.10,2013-12-22 06:54:00,